METEOR 1-5

导读 | 豆包AI

METEOR 1-5是苏联(CIS)“流星”一号系列气象卫星,于1970年6月23日发射入轨。作为苏联第一代气象卫星成员,它运行于近地太阳同步轨道,搭载电视相机、红外探测仪器等气象观测设备,承担全球气象数据采集任务,为气象预报提供关键支持,标志着苏联气象卫星组网进程的推进,也为后续流星系列卫星发展积累了重要技术经验。

基本信息
目录编号:
4419
目录名称:
METEOR 1-5
国际标识:
1970-047A
轨道中心:
EARTH
卫星名称:
METEOR 1-5
卫星全名:
--
卫星状态:
在轨 (已飞行20354 天)
发射日期:
1970-06-23 UTC
国别 :
俄罗斯(独联体) (CIS)
星等 :
--
轨道信息
数据来源 国际轨道数据 AOE轨道数据
星历时间 2026-03-15T07:10:57+0800
11小时前
查看轨道信息
2026-03-11T13:00:00+0800
4天前
查看轨道信息
半长轴 7216.512km 7216.511km
偏心率 0.003895 0.0039261
轨道倾角 81.219° 81.220°
近地点辐角 324.839° 335.699°
升交点赤经 328.689° 332.394°
平近点角 35.022° 318.020°
近地点 810.266km 810.041km
远地点 866.484km 866.707km
周期 101.684分钟 101.684分钟
每日圈数 14.161584 14.161585
详细信息
使用方式:
暂无
2D轨道图
3D轨道图
轨道高度分析图
轨道倾角分析图
轨道综合分析图
查看轨道综合分析图